FW9069 Weather Reports


time (UTC)temp
F
wind
direction
speed
knots
gust
knots
rain 1hr
in
rain 24hr
in
rain mn
in
humidity
%
barometer
mb
20260505173333 56 202 1.7 3.5 0.00 0.00 0.00 84 1017.0
20260505171815 56 134 0.9 2.6 0.00 0.00 0.00 86 1016.9
20260505170323 56 173 0.0 2.6 0.00 0.00 0.00 85 1016.9
20260505164851 55 173 0.9 1.7 0.00 0.00 0.00 86 1016.8
20260505163313 55 189 0.9 1.7 0.00 0.00 0.00 87 1016.8
20260505161829 54 193 0.9 1.7 0.00 0.00 0.00 88 1016.6
20260505160352 54 191 0.0 1.7 0.00 0.00 0.00 88 1016.7
20260505153344 53 188 0.9 1.7 0.00 0.00 0.00 90 1016.6
20260505151830 52 188 0.9 2.6 0.00 0.00 0.00 90 1016.6
20260505150334 52 188 0.9 2.6 0.00 0.00 0.00 91 1016.5
20260505140345 51 188 0.0 0.0 0.00 0.00 0.00 94 1016.0
20260505124826 51 188 0.0 0.9 0.00 0.00 0.00 94 1015.5
20260505123332 51 188 0.0 0.9 0.00 0.00 0.00 94 1015.5
20260505121824 51 188 0.0 1.7 0.00 0.00 0.00 94 1015.4
20260505120334 51 188 0.9 2.6 0.00 0.00 0.00 94 1015.2
20260505114821 51 196 1.7 5.2 0.00 0.00 0.00 94 1015.2
20260505113331 51 197 1.7 5.2 0.00 0.00 0.00 94 1015.1
20260505111821 51 181 2.6 6.1 0.00 0.00 0.00 94 1015.0
20260505110329 51 221 2.6 4.3 0.00 0.00 0.00 94 1014.9
20260505101832 51 183 0.9 3.5 0.00 0.00 0.00 94 1014.8
20260505100328 50 166 0.9 5.2 0.00 0.00 0.00 94 1014.6
20260505094818 50 180 0.9 3.5 0.00 0.00 0.00 94 1014.7
20260505093324 50 200 1.7 7.0 0.00 0.00 0.00 95 1014.6
20260505091830 50 182 2.6 7.0 0.00 0.00 0.00 95 1014.5
20260505090322 49 177 2.6 6.1 0.00 0.00 0.00 95 1014.5
20260505084830 49 175 2.6 5.2 0.00 0.00 0.00 94 1014.4
20260505083338 49 179 1.7 3.5 0.00 0.00 0.00 94 1014.6
20260505081823 50 177 0.9 3.5 0.00 0.00 0.00 94 1014.5
20260505080331 50 169 0.9 7.0 0.00 0.00 0.00 94 1014.3
20260505074855 50 175 2.6 7.0 0.00 0.00 0.00 93 1014.3
20260505073359 50 182 1.7 7.0 0.00 0.00 0.00 93 1014.3
20260505071826 50 176 1.7 5.2 0.00 0.00 0.00 93 1014.2
20260505070316 50 180 1.7 6.1 0.00 0.00 0.00 93 1013.9
20260505064826 50 190 1.7 3.5 0.00 0.00 0.00 92 1014.0
20260505063329 51 196 1.7 5.2 0.00 0.00 0.00 91 1013.9
20260505061817 51 169 1.7 5.2 0.00 0.00 0.00 90 1013.9
20260505060333 52 210 3.5 7.8 0.00 0.00 0.00 89 1013.9
20260505054823 52 192 3.5 6.1 0.00 0.00 0.00 89 1013.8
20260505053319 52 179 2.6 6.1 0.00 0.00 0.00 89 1013.8
20260505051848 53 232 2.6 5.2 0.00 0.00 0.00 88 1013.8
20260505050336 53 181 1.7 5.2 0.00 0.00 0.00 88 1013.6
20260505040359 55 181 3.5 8.7 0.00 0.00 0.00 84 1012.7
20260505034826 56 203 7.0 11.3 0.00 0.00 0.00 82 1012.4
20260505033338 57 237 7.0 12.2 0.00 0.00 0.00 80 1012.3
20260505031843 58 202 7.0 12.2 0.00 0.00 0.00 78 1012.0
20260505030332 60 216 7.8 13.9 0.00 0.00 0.00 75 1011.8
20260505024834 62 229 7.8 12.2 0.00 0.00 0.00 72 1011.8
20260505023323 64 215 4.3 7.8 0.00 0.00 0.00 70 1011.6
20260505021835 66 236 3.5 8.7 0.00 0.00 0.00 69 1011.7
20260505020323 68 220 4.3 8.7 0.00 0.00 0.00 67 1011.7
20260505014831 68 201 2.6 6.1 0.00 0.00 0.00 69 1011.7
20260505013337 68 179 3.5 7.8 0.00 0.00 0.00 70 1011.7
20260505011826 70 206 5.2 12.2 0.00 0.00 0.00 69 1011.8
20260505010334 70 184 3.5 7.8 0.00 0.00 0.00 71 1011.9
20260505004822 71 181 3.5 7.8 0.00 0.00 0.00 69 1011.9
20260505003331 71 205 3.5 9.6 0.00 0.00 0.00 68 1011.9
20260505001821 71 231 4.3 7.8 0.00 0.00 0.00 68 1011.8
20260505000330 73 128 1.7 6.1 0.00 0.00 0.00 67 1012.0
20260504234843 73 192 3.5 8.7 0.00 0.00 0.00 64 1012.1
20260504233352 74 221 2.6 9.6 0.00 0.00 0.00 66 1012.1
20260504231839 73 116 2.6 7.0 0.00 0.00 0.00 68 1012.3
20260504230325 72 134 3.5 9.6 0.00 0.00 0.00 69 1012.4
20260504224836 72 211 4.3 7.8 0.00 0.00 0.00 68 1012.4
20260504223342 71 207 0.9 7.8 0.00 0.00 0.00 71 1012.6
20260504221832 70 174 3.5 7.8 0.00 0.00 0.00 72 1012.7
20260504220338 71 180 1.7 8.7 0.00 0.00 0.00 70 1012.9
20260504214824 71 118 2.6 7.8 0.00 0.00 0.00 69 1013.1
20260504213336 71 181 3.5 7.8 0.00 0.00 0.00 66 1013.1
20260504211844 70 170 1.7 5.2 0.00 0.00 0.00 68 1013.3
20260504210331 70 169 3.5 7.0 0.00 0.00 0.00 69 1013.4
20260504204839 69 183 4.3 8.7 0.00 0.00 0.00 70 1013.7
20260504203327 68 129 3.5 7.0 0.00 0.00 0.00 74 1013.9
20260504201834 67 157 1.7 7.8 0.00 0.00 0.00 73 1013.8
20260504200326 65 138 1.7 7.0 0.00 0.00 0.00 75 1013.9
20260504194856 65 69 3.5 7.8 0.00 0.00 0.00 76 1013.9
20260504193326 64 174 1.7 8.7 0.00 0.00 0.00 75 1014.0
20260504191829 63 136 1.7 7.8 0.00 0.00 0.00 79 1014.1
20260504190341 62 127 2.6 8.7 0.00 0.00 0.00 78 1014.2
20260504184830 61 127 1.7 5.2 0.00 0.00 0.00 81 1014.4
20260504183321 60 148 1.7 6.1 0.00 0.00 0.00 82 1014.3
20260504181832 60 135 2.6 7.0 0.00 0.00 0.00 82 1014.3
20260504180323 59 172 2.6 6.1 0.00 0.00 0.00 83 1014.2
20260504174830 58 173 1.7 6.1 0.00 0.00 0.00 86 1014.3